Regional Weather Roundup
Issued by NWS Newport/Morehead, NC

Current Version | Previous Version | Graphics & Text | Print | Product List | Glossary Off
Versions: 1 2 3 4 5 6 7 8 9 10 11 12 13 14 15 16 17 18 19 20 21 22 23 24 25 26 27 28 29 30 31 32 33 34 35 36 37 38 39 40 41 42 43 44 45 46 47 48 49 50
043 ASUS42 KMHX 281025 RWRMHX WEATHER ROUNDUP FOR EASTERN NORTH CAROLINA NATIONAL WEATHER SERVICE NEWPORT/MOREHEAD CITY NC 600 AM EDT TUE MAR 28 2017 NOTE: "FAIR" INDICATES FEW OR NO CLOUDS BELOW 12,000 FEET WITH NO SIGNIFICANT WEATHER AND/OR OBSTRUCTIONS TO VISIBILITY NCZ015>017-031-032-045>047-102-103-281100- NORTH COAST CITY SKY/WX TMP DP RH WIND PRES REMARKS EDENTON PTCLDY 58 55 91 CALM 29.97R ELIZABETH CITY PTCLDY 59 55 87 S6 29.96S KITTY HAWK NOT AVBL MANTEO CLEAR 58 56 92 SW7 29.98S $$ NCZ045>047-081-094-103-104-281100- CENTRAL COAST CITY SKY/WX TMP DP RH WIND PRES REMARKS FRISCO PTCLDY 67 58 72 W8 29.99R HAZE $$ NCZ095-097-098-100-101-281100- SOUTHERN COAST CITY SKY/WX TMP DP RH WIND PRES REMARKS BEAUFORT CLOUDY 64 61 90 SW7 29.99R CEDAR ISLAND NOT AVBL JACKSONVILLE CLOUDY 62 58 86 CALM 29.97S PINEY ISLAND CLOUDY N/A N/A N/A S5 29.99R WILMINGTON CLEAR 61 59 93 CALM 29.98S $$ NCZ011>013-027>030-043-044-078>080-089-090>093-098-281100- COASTAL PLAIN CITY SKY/WX TMP DP RH WIND PRES REMARKS AHOSKIE N/A 60 56 86 S3 29.93F CLINTON PTCLDY 60 58 95 S3 29.97S ELIZABETHTOWN PTCLDY 63 59 88 SW6 29.97S GOLDSBORO PTCLDY 62 62 100 S5 29.94S GREENVILLE MOCLDY 63 59 88 SW7 29.97S HAVELOCK NOT AVBL KENANSVILLE MOCLDY 61 59 94 CALM 29.96F KINSTON CLOUDY 62 58 85 S8 29.96F NEW BERN CLOUDY 62 58 86 S7 29.98S RICHLANDS CLOUDY 60 58 92 S6 29.98S ROCKY MOUNT CLOUDY 61 57 87 S8 29.94S WASHINGTON CLOUDY 61 56 85 S3 29.97R WHITEVILLE PTCLDY 60 58 92 SW5 29.98R $$ AMZ130-135-150-152-154-156-158-170-250-252-270-ANZ085-086-088-633-658-670-281100- MARINE OBSERVATIONS STATION/POSITION TIME TEMP WIND PRES WAVE SWELL AIR SEA DIR/SP/G HT/PER HT/PER (UTC) (F) (DEG/KT/KT) (MB) (FT/S) (FT/S) CHESAPEAKE LIGHT NOT AVBL 64 E VA BEACH 0950 55 49 210/ 10/ 12 1014.5 4/10 3/10 DUCK 1000 61 49 200/ 10/ 12 1014.2 2 E DUCK 1000 50 N/A 3/ 8 2/17 OREGON INLET 1000 61 58 210/ 8/ 9 1015.3 13E OREGON INLT 0948 52 N/A 4/11 3/11 HATTERAS CG 1000 66 61 230/ 7/ 11 1015.4 DIAMOND BUOY 0950 71 73 230/ 17/ 21 1015.3 5/ 8 3/ 8 CAPE LOOKOUT 1000 66 220/ 5/ 6 1015.4 BEAUFORT LAB 1000 63 60 220/ 2/ 4 1014.7 30 SE NEW RVR IN 1008 65 240/ 4/ 6 1015.8 30 SE NEW RVR IN 1013 64 N/A 5/11 2/11 27 SE WRIGHTSVLE 1008 68 66 230/ 12/ 14 1014.5 5 SE WRIGHTSVLE 1008 62 60 220/ 6/ 8 1015.0 225 S CAPE HAT 0950 67 72 340/ 2/ 4 1017.1 6/10 5/10 41 SE CHARLESTON 0950 72 70 210/ 16/ 17 1015.4 5/10 3/10 $$

USA.gov is the U.S. government's official web portal to all federal, state and local government web resources and services.